This is the latest recevied weather packets stored in our database for station/object KC1ELF. If no packets are shown the sender has not sent any weather packets the latest 10 day(s).
| Time | Temp. | Humidity | Pressure | Rain* | Wind** | Luminosity | Snow |
|---|---|---|---|---|---|---|---|
| 1777997495 | 25.56° C | 47% | 1008.1 hPa | 0 mm | - | - | - |
| 1777996896 | 25.56° C | 49% | 1008.2 hPa | 0 mm | - | - | - |
| 1777996296 | 25° C | 49% | 1008.4 hPa | 0 mm | - | - | - |
| 1777995695 | 24.44° C | 50% | 1008.5 hPa | 0 mm | - | - | - |
| 1777995096 | 24.44° C | 50% | 1008.5 hPa | 0 mm | - | - | - |
| 1777994496 | 23.89° C | 52% | 1008.5 hPa | 0 mm | - | - | - |
| 1777993896 | 23.33° C | 52% | 1008.5 hPa | 0 mm | - | - | - |
| 1777993295 | 22.78° C | 52% | 1008.8 hPa | 0 mm | - | - | - |
| 1777992695 | 22.22° C | 55% | 1009 hPa | 0 mm | - | - | - |
| 1777992096 | 21.67° C | 56% | 1009.1 hPa | 0 mm | - | - | - |
| 1777991496 | 21.67° C | 57% | 1009 hPa | 0 mm | - | - | - |
| 1777990896 | 21.11° C | 59% | 1008.8 hPa | 0 mm | - | - | - |
| 1777989695 | 19.44° C | 61% | 1008.9 hPa | 0 mm | - | - | - |
| 1777989095 | 19.44° C | 62% | 1008.9 hPa | 0 mm | - | - | - |
| 1777988495 | 18.33° C | 64% | 1008.9 hPa | 0 mm | - | - | - |
| 1777987896 | 17.22° C | 66% | 1008.9 hPa | 0 mm | - | - | - |
| 1777987296 | 17.22° C | 64% | 1009.1 hPa | 0 mm | - | - | - |
| 1777986696 | 17.78° C | 65% | 1009.1 hPa | 0 mm | - | - | - |
| 1777986096 | 16.67° C | 67% | 1008.9 hPa | 0 mm | - | - | - |
| 1777985496 | 16.11° C | 68% | 1008.9 hPa | 0 mm | - | - | - |
| 1777984896 | 16.11° C | 68% | 1009.1 hPa | 0 mm | - | - | - |
| 1777984295 | 15.56° C | 68% | 1009.1 hPa | 0 mm | - | - | - |
| 1777983695 | 15.56° C | 69% | 1009 hPa | 0 mm | - | - | - |
| 1777983095 | 15.56° C | 69% | 1009.1 hPa | 0 mm | - | - | - |
| 1777982496 | 15.56° C | 69% | 1009 hPa | 0 mm | - | - | - |
* Rain latest hour (hover to see other rain measurements)
** Current wind speed in m/s (hover to see current wind gust speed)